Location: Golden Pond Observatory
(36.7773°N, 88.0631°W)
Time: 14:14:41
(UTC-05:00)

ISS - Visible Passes

Search period start: 20 March 2019 00:00
Search period end: 30 March 2019 00:00
Orbit: 406 x 411 km, 51.6° (Epoch: 21 March)

Date Brightness Start Highest point End Pass type
(mag) Time Alt. Az. Time Alt. Az. Time Alt. Az.
20 Mar -2.7 19:50:48 10° S 19:53:35 26° SE 19:55:12 17° E visible
20 Mar -0.8 21:27:10 10° W 21:28:01 16° W 21:28:01 16° W visible
21 Mar -3.1 20:35:45 10° WSW 20:38:58 51° NW 20:40:04 33° NNE visible
22 Mar -3.9 19:44:38 10° SW 19:47:56 78° SE 19:51:13 10° NE visible
22 Mar -0.9 21:22:49 10° WNW 21:24:40 15° NNW 21:24:40 15° NNW visible
23 Mar -1.5 20:30:54 10° W 20:33:36 22° NNW 20:36:16 10° NNE visible
24 Mar -2.4 19:39:19 10° WSW 19:42:25 37° NW 19:45:31 10° NE visible
25 Mar -0.9 20:26:47 10° NW 20:28:21 13° NNW 20:29:55 10° N visible
26 Mar -1.2 19:34:38 10° WNW 19:37:01 18° NNW 19:39:25 10° NNE visible
